AVUM R/B, 53109

Orbit data source: Space-Track

AVUM R/B, 53109 is space debris originally from a launch on Wed, 13 Jul 2022 UTC via a Vega C launch vehicle from the French Guiana (FRGUI). Debris objects in space refer to the collection of defunct objects orbiting the Earth. Examples of debris include non-operational satellites, rocket bodies, and fragments generated from explosions, collisions, or faulty payload assembly.

Loading next visibility...
Identifier
53109, 2022-080E
Orbit
Active
Country
Flag of FRFR
Related business
Manufacturer
Avio
Mission
Operational Amateur Technology
Bus & Motor
AVUM, Unknown motor
Mass
Wet unknown, 660 kg dry
Launch date (UTC)
2022-07-13 (3 years ago)
Launch vehicle
Vega C
Launch site
French Guiana (FRGUI)
Object type
Payload
Rocket body
Debris
Shape & HBR
Box, 0.1 m
Radar Cross Section
0.015 m², Large (>1 m²)

Expand to show TLE details & history
Last TLE update: 8 hours ago

TLE from 8 hours ago
0 AVUM R/B
1 53109U 22080E   25261.28745958 -.00000003  00000-0  00000-0 0  9998
2 53109  70.1544  32.7830 0008569 347.6842  12.3608  6.42583654 74594
Epoch: 2025-09-18T06:53Z
TLE epoch observation values (Epoch: 2025-09-18T06:53:56.507Z)
Latitude
0.00004°
Longitude
-68.15365°
Altitude
5,834.263 km
Speed
5.716 km/s
True Right ascension
02h 11m 07s
True Declination
0° 00' 00"
Sunlit
Object was in daylight at epoch
Visualization orbit readout
Latitude
Unknown
Longitude
Unknown
Altitude
Unknown
Speed
Unknown
Apparent Right ascension
Unknown
Apparent Declination
Unknown
Sunlit
N/A
Visualization observer readout
Local Sidereal Time
07:31:14
Azimuth
Unknown
Elevation
Unknown
Doppler factor
Unknown
Orbital elements
Apogee altitude
5,852.406 km
Perigee altitude
5,831.464 km
Semi-major axis
12,220.072 km
Eccentricity
0.00086
Inclination
70.1544°
RAAN
32.783°
Arg. of periapsis
347.6842°
True anomaly
12.38184°
Mean anomaly
12.3608°
Eccentric anomaly
12.37132°
Mean motion
1.60669 °/min
Orbital period
224.06 mins
BSTAR
0
Loading maneuver chart data...
Computing Atmospheric mass density...
Loading historical data...
Loading historical data...
Loading historical data...
Loading historical data...
Loading historical data...
Loading historical data...
Loading historical data...

Documentation

Showing up to 5 results
|